| time (UTC) | temp F | wind direction | speed knots | gust knots | rain 1hr in | rain 24hr in | rain mn in | humidity % | barometer mb |
| 20260507143346 | 0 | 257 | 0.9 | 3.5 | 0.00 | 0.00 | 0.00 | 1019.8 | |
| 20260507142345 | 0 | 259 | 0.9 | 2.6 | 0.00 | 0.00 | 0.00 | 1019.7 | |
| 20260507141409 | 0 | 258 | 0.9 | 1.7 | 0.00 | 0.00 | 0.00 | 1019.6 | |
| 20260507140346 | 0 | 255 | 2.6 | 5.2 | 0.00 | 0.00 | 0.00 | 1019.6 | |
| 20260507135347 | 0 | 248 | 1.7 | 4.3 | 0.00 | 0.00 | 0.00 | 1019.6 | |
| 20260507134346 | 0 | 282 | 1.7 | 5.2 | 0.00 | 0.00 | 0.00 | 1019.6 | |
| 20260507133346 | 0 | 256 | 1.7 | 5.2 | 0.00 | 0.00 | 0.00 | 1019.5 | |
| 20260507132348 | 0 | 253 | 0.9 | 2.6 | 0.00 | 0.00 | 0.00 | 1019.5 | |
| 20260507131436 | 0 | 277 | 1.7 | 5.2 | 0.00 | 0.00 | 0.00 | 1019.4 | |
| 20260507130346 | 0 | 272 | 1.7 | 4.3 | 0.00 | 0.00 | 0.00 | 1019.4 | |
| 20260507124417 | 0 | 287 | 0.9 | 3.5 | 0.00 | 0.00 | 0.00 | 1019.4 | |
| 20260507123349 | 0 | 299 | 0.9 | 3.5 | 0.00 | 0.00 | 0.00 | 1019.4 | |
| 20260507122346 | 0 | 301 | 0.9 | 3.5 | 0.00 | 0.00 | 0.00 | 1019.5 | |
| 20260507120245 | 0 | 295 | 1.7 | 6.1 | 0.00 | 0.00 | 0.00 | 1019.7 | |
| 20260507115245 | 0 | 270 | 1.7 | 4.3 | 0.00 | 0.00 | 0.00 | 1019.7 | |
| 20260507114301 | 0 | 280 | 2.6 | 7.8 | 0.00 | 0.00 | 0.00 | 1019.8 | |
| 20260507113245 | 0 | 309 | 1.7 | 5.2 | 0.00 | 0.00 | 0.00 | 1019.8 | |
| 20260507112245 | 0 | 314 | 1.7 | 4.3 | 0.00 | 0.00 | 0.00 | 1019.8 | |
| 20260507111310 | 0 | 303 | 3.5 | 7.0 | 0.00 | 0.00 | 0.00 | 1019.8 | |
| 20260507110246 | 0 | 278 | 4.3 | 8.7 | 0.00 | 0.00 | 0.00 | 1019.7 | |
| 20260507105245 | 0 | 263 | 5.2 | 8.7 | 0.00 | 0.00 | 0.00 | 1019.7 | |
| 20260507104245 | 0 | 266 | 4.3 | 7.8 | 0.00 | 0.00 | 0.00 | 1019.8 | |
| 20260507103245 | 0 | 277 | 6.1 | 8.7 | 0.00 | 0.00 | 0.00 | 1019.9 | |
| 20260507102246 | 0 | 276 | 5.2 | 8.7 | 0.00 | 0.00 | 0.00 | 1019.9 | |
| 20260507101311 | 0 | 280 | 6.1 | 9.6 | 0.00 | 0.00 | 0.00 | 1019.9 | |
| 20260507100245 | 0 | 284 | 6.1 | 8.7 | 0.00 | 0.00 | 0.00 | 1020.0 | |
| 20260507095245 | 0 | 272 | 6.1 | 8.7 | 0.00 | 0.00 | 0.00 | 1020.1 | |
| 20260507094246 | 0 | 265 | 6.1 | 9.6 | 0.00 | 0.00 | 0.00 | 1020.1 | |
| 20260507093245 | 0 | 271 | 7.0 | 10.4 | 0.00 | 0.00 | 0.00 | 1020.2 | |
| 20260507092246 | 0 | 262 | 7.0 | 10.4 | 0.00 | 0.00 | 0.00 | 1020.3 | |
| 20260507091312 | 0 | 244 | 5.2 | 7.8 | 0.00 | 0.00 | 0.00 | 1020.4 | |
| 20260507090245 | 0 | 231 | 5.2 | 9.6 | 0.00 | 0.00 | 0.00 | 1020.5 | |
| 20260507085247 | 0 | 229 | 5.2 | 9.6 | 0.00 | 0.00 | 0.00 | 1020.5 | |
| 20260507084246 | 0 | 221 | 4.3 | 7.8 | 0.00 | 0.00 | 0.00 | 1020.4 | |
| 20260507083246 | 0 | 244 | 4.3 | 8.7 | 0.00 | 0.00 | 0.00 | 1020.4 | |
| 20260507082245 | 0 | 249 | 4.3 | 7.8 | 0.00 | 0.00 | 0.00 | 1020.5 | |
| 20260507081341 | 0 | 245 | 3.5 | 8.7 | 0.00 | 0.00 | 0.00 | 1020.5 | |
| 20260507080245 | 0 | 250 | 4.3 | 8.7 | 0.00 | 0.00 | 0.00 | 1020.6 | |
| 20260507075245 | 0 | 265 | 4.3 | 7.8 | 0.00 | 0.00 | 0.00 | 1020.6 | |
| 20260507074245 | 0 | 274 | 4.3 | 7.8 | 0.00 | 0.00 | 0.00 | 1020.5 | |
| 20260507073245 | 0 | 244 | 3.5 | 7.8 | 0.00 | 0.00 | 0.00 | 1020.5 | |
| 20260507072246 | 0 | 248 | 3.5 | 8.7 | 0.00 | 0.00 | 0.00 | 1020.5 | |
| 20260507071314 | 0 | 262 | 3.5 | 7.8 | 0.00 | 0.00 | 0.00 | 1020.5 | |
| 20260507070245 | 0 | 254 | 5.2 | 8.7 | 0.00 | 0.00 | 0.00 | 1020.5 | |
| 20260507065245 | 0 | 266 | 4.3 | 8.7 | 0.00 | 0.00 | 0.00 | 1020.6 | |
| 20260507064246 | 0 | 260 | 3.5 | 7.0 | 0.00 | 0.00 | 0.00 | 1020.6 | |
| 20260507063246 | 0 | 282 | 3.5 | 7.0 | 0.00 | 0.00 | 0.00 | 1020.6 | |
| 20260507062245 | 0 | 276 | 5.2 | 9.6 | 0.00 | 0.00 | 0.00 | 1020.6 | |
| 20260507061311 | 0 | 266 | 5.2 | 8.7 | 0.00 | 0.00 | 0.00 | 1020.5 | |
| 20260507060245 | 0 | 258 | 4.3 | 8.7 | 0.00 | 0.00 | 0.00 | 1020.5 | |
| 20260507055246 | 0 | 283 | 5.2 | 10.4 | 0.00 | 0.00 | 0.00 | 1020.6 | |
| 20260507054246 | 0 | 255 | 4.3 | 7.8 | 0.00 | 0.00 | 0.00 | 1020.6 | |
| 20260507053301 | 0 | 276 | 4.3 | 7.8 | 0.00 | 0.00 | 0.00 | 1020.6 | |
| 20260507052246 | 0 | 251 | 4.3 | 7.8 | 0.00 | 0.00 | 0.00 | 1020.8 | |
| 20260507051311 | 0 | 275 | 5.2 | 9.6 | 0.00 | 0.00 | 0.00 | 1020.8 | |
| 20260507050245 | 0 | 267 | 5.2 | 12.2 | 0.00 | 0.00 | 0.00 | 1020.8 | |
| 20260507045246 | 0 | 268 | 6.1 | 11.3 | 0.00 | 0.00 | 0.00 | 1020.7 | |
| 20260507044246 | 0 | 260 | 7.0 | 13.0 | 0.00 | 0.00 | 0.00 | 1020.8 | |
| 20260507043246 | 0 | 252 | 6.1 | 11.3 | 0.00 | 0.00 | 0.00 | 1020.8 | |
| 20260507042338 | 0 | 260 | 7.0 | 13.0 | 0.00 | 0.00 | 0.00 | 1020.7 | |
| 20260507041402 | 0 | 248 | 6.1 | 11.3 | 0.00 | 0.00 | 0.00 | 1020.8 | |
| 20260507040338 | 0 | 250 | 5.2 | 11.3 | 0.00 | 0.00 | 0.00 | 1020.7 | |
| 20260507035339 | 0 | 265 | 6.1 | 13.0 | 0.00 | 0.00 | 0.00 | 1020.6 | |
| 20260507034344 | 0 | 276 | 7.0 | 11.3 | 0.00 | 0.00 | 0.00 | 1020.4 | |
| 20260507033346 | 0 | 269 | 7.0 | 13.0 | 0.00 | 0.00 | 0.00 | 1020.3 | |
| 20260507032346 | 0 | 287 | 6.1 | 10.4 | 0.00 | 0.00 | 0.00 | 1020.3 | |
| 20260507030346 | 0 | 301 | 6.1 | 11.3 | 0.00 | 0.00 | 0.00 | 1020.3 | |
| 20260507025347 | 0 | 304 | 6.1 | 11.3 | 0.00 | 0.00 | 0.00 | 1020.2 | |
| 20260507024347 | 0 | 296 | 7.8 | 12.2 | 0.00 | 0.00 | 0.00 | 1020.1 | |
| 20260507023350 | 0 | 297 | 7.0 | 13.0 | 0.00 | 0.00 | 0.00 | 1020.0 | |
| 20260507022529 | 0 | 303 | 6.1 | 10.4 | 0.00 | 0.00 | 0.00 | 1019.9 | |
| 20260507021430 | 0 | 302 | 6.1 | 13.0 | 0.00 | 0.00 | 0.00 | 1019.9 | |
| 20260507020350 | 0 | 289 | 6.1 | 13.0 | 0.00 | 0.00 | 0.00 | 1019.8 | |
| 20260507015350 | 0 | 290 | 7.0 | 11.3 | 0.00 | 0.00 | 0.00 | 1019.8 | |
| 20260507014349 | 0 | 307 | 5.2 | 11.3 | 0.00 | 0.00 | 0.00 | 1019.8 | |
| 20260507013349 | 0 | 278 | 6.1 | 11.3 | 0.00 | 0.00 | 0.00 | 1019.9 | |
| 20260507012350 | 0 | 294 | 7.0 | 13.0 | 0.00 | 0.00 | 0.00 | 1019.9 | |
| 20260507011414 | 0 | 293 | 7.0 | 13.9 | 0.00 | 0.00 | 0.00 | 1020.0 | |
| 20260507010350 | 0 | 294 | 5.2 | 8.7 | 0.00 | 0.00 | 0.00 | 1020.2 | |
| 20260507005415 | 0 | 295 | 7.8 | 13.9 | 0.00 | 0.00 | 0.00 | 1020.2 | |
| 20260507004351 | 0 | 323 | 6.1 | 11.3 | 0.00 | 0.00 | 0.00 | 1020.3 | |
| 20260507003350 | 0 | 290 | 7.0 | 12.2 | 0.00 | 0.00 | 0.00 | 1020.2 | |
| 20260507002350 | 0 | 293 | 7.8 | 14.8 | 0.00 | 0.00 | 0.00 | 1020.2 | |
| 20260507001415 | 0 | 298 | 5.2 | 12.2 | 0.00 | 0.00 | 0.00 | 1020.1 | |
| 20260507000351 | 0 | 306 | 7.0 | 14.8 | 0.00 | 0.00 | 0.00 | 1020.1 | |
| 20260506235354 | 0 | 290 | 6.1 | 11.3 | 0.00 | 0.00 | 0.00 | 1020.2 | |
| 20260506234351 | 0 | 298 | 7.0 | 11.3 | 0.00 | 0.00 | 0.00 | 1020.2 | |
| 20260506233351 | 0 | 297 | 6.1 | 14.8 | 0.00 | 0.00 | 0.00 | 1020.2 | |
| 20260506232349 | 0 | 295 | 6.1 | 10.4 | 0.00 | 0.00 | 0.00 | 1020.2 | |
| 20260506231412 | 0 | 297 | 5.2 | 13.0 | 0.00 | 0.00 | 0.00 | 1020.2 | |
| 20260506230346 | 0 | 300 | 5.2 | 12.2 | 0.00 | 0.00 | 0.00 | 1020.3 | |
| 20260506224346 | 0 | 283 | 4.3 | 12.2 | 0.00 | 0.00 | 0.00 | 1020.3 | |
| 20260506223416 | 0 | 297 | 5.2 | 12.2 | 0.00 | 0.00 | 0.00 | 1020.4 | |
| 20260506222346 | 0 | 321 | 7.0 | 13.0 | 0.00 | 0.00 | 0.00 | 1020.5 | |
| 20260506221410 | 0 | 315 | 7.0 | 15.6 | 0.00 | 0.00 | 0.00 | 1020.6 | |
| 20260506220346 | 0 | 309 | 7.0 | 13.0 | 0.00 | 0.00 | 0.00 | 1020.5 | |
| 20260506215346 | 0 | 308 | 5.2 | 9.6 | 0.00 | 0.00 | 0.00 | 1020.5 | |
| 20260506214345 | 0 | 305 | 4.3 | 12.2 | 0.00 | 0.00 | 0.00 | 1020.5 | |
| 20260506213345 | 0 | 325 | 4.3 | 7.8 | 0.00 | 0.00 | 0.00 | 1020.5 | |
| 20260506212345 | 0 | 304 | 6.1 | 15.6 | 0.00 | 0.00 | 0.00 | 1020.4 | |
| 20260506210344 | 0 | 293 | 7.0 | 12.2 | 0.00 | 0.00 | 0.00 | 1020.4 | |
| 20260506205344 | 0 | 280 | 6.1 | 12.2 | 0.00 | 0.00 | 0.00 | 1020.4 | |
| 20260506204344 | 0 | 271 | 5.2 | 12.2 | 0.00 | 0.00 | 0.00 | 1020.3 | |
| 20260506203345 | 0 | 281 | 6.1 | 8.7 | 0.00 | 0.00 | 0.00 | 1020.3 | |
| 20260506202345 | 0 | 259 | 5.2 | 11.3 | 0.00 | 0.00 | 0.00 | 1020.3 | |
| 20260506201409 | 0 | 273 | 7.0 | 15.6 | 0.00 | 0.00 | 0.00 | 1020.4 | |
| 20260506200345 | 0 | 284 | 7.0 | 13.0 | 0.00 | 0.00 | 0.00 | 1020.4 | |
| 20260506195344 | 0 | 281 | 7.8 | 13.9 | 0.00 | 0.00 | 0.00 | 1020.3 | |
| 20260506194344 | 0 | 265 | 7.0 | 13.9 | 0.00 | 0.00 | 0.00 | 1020.2 | |
| 20260506193344 | 0 | 264 | 6.1 | 10.4 | 0.00 | 0.00 | 0.00 | 1020.0 | |
| 20260506192344 | 0 | 257 | 5.2 | 9.6 | 0.00 | 0.00 | 0.00 | 1019.8 | |
| 20260506191411 | 0 | 258 | 6.1 | 13.0 | 0.00 | 0.00 | 0.00 | 1020.0 | |
| 20260506190342 | 0 | 295 | 4.3 | 11.3 | 0.00 | 0.00 | 0.00 | 1020.1 | |
| 20260506185342 | 0 | 249 | 5.2 | 12.2 | 0.00 | 0.00 | 0.00 | 1020.1 | |
| 20260506184343 | 0 | 249 | 4.3 | 10.4 | 0.00 | 0.00 | 0.00 | 1020.1 | |
| 20260506183342 | 0 | 236 | 2.6 | 10.4 | 0.00 | 0.00 | 0.00 | 1020.3 | |
| 20260506182407 | 0 | 240 | 4.3 | 10.4 | 0.00 | 0.00 | 0.00 | 1020.2 | |
| 20260506181407 | 0 | 266 | 4.3 | 10.4 | 0.00 | 0.00 | 0.00 | 1020.3 | |
| 20260506180343 | 0 | 311 | 1.7 | 5.2 | 0.00 | 0.00 | 0.00 | 1020.2 | |
| 20260506175345 | 0 | 302 | 1.7 | 3.5 | 0.00 | 0.00 | 0.00 | 1020.1 | |
| 20260506174342 | 0 | 289 | 1.7 | 5.2 | 0.00 | 0.00 | 0.00 | 1020.1 | |
| 20260506173343 | 0 | 292 | 2.6 | 5.2 | 0.00 | 0.00 | 0.00 | 1020.0 | |
| 20260506172343 | 0 | 304 | 1.7 | 5.2 | 0.00 | 0.00 | 0.00 | 1019.9 | |
| 20260506171407 | 0 | 270 | 1.7 | 5.2 | 0.00 | 0.00 | 0.00 | 1019.9 | |
| 20260506170342 | 0 | 255 | 2.6 | 6.1 | 0.00 | 0.00 | 0.00 | 1019.9 | |
| 20260506165342 | 0 | 282 | 3.5 | 5.2 | 0.00 | 0.00 | 0.00 | 1019.9 | |
| 20260506164343 | 0 | 271 | 3.5 | 7.8 | 0.00 | 0.00 | 0.00 | 1019.9 | |
| 20260506163342 | 0 | 255 | 3.5 | 7.8 | 0.00 | 0.00 | 0.00 | 1019.9 | |
| 20260506162342 | 0 | 259 | 4.3 | 7.8 | 0.00 | 0.00 | 0.00 | 1019.9 | |
| 20260506161405 | 0 | 246 | 3.5 | 8.7 | 0.00 | 0.00 | 0.00 | 1019.9 | |
| 20260506160445 | 0 | 265 | 3.5 | 7.8 | 0.00 | 0.00 | 0.00 | 1020.0 | |
| 20260506155340 | 0 | 297 | 1.7 | 3.5 | 0.00 | 0.00 | 0.00 | 1019.9 | |
| 20260506154343 | 0 | 342 | 1.7 | 3.5 | 0.00 | 0.00 | 0.00 | 1019.6 | |
| 20260506153344 | 0 | 69 | 0.9 | 1.7 | 0.00 | 0.00 | 0.00 | 1019.2 | |
| 20260506152345 | 0 | 14 | 0.9 | 2.6 | 0.00 | 0.00 | 0.00 | 1019.1 | |
| 20260506151407 | 0 | 199 | 0.9 | 0.9 | 0.00 | 0.00 | 0.00 | 1019.2 | |
| 20260506150343 | 0 | 211 | 0.9 | 3.5 | 0.00 | 0.00 | 0.00 | 1019.6 | |
| 20260506145343 | 0 | 244 | 2.6 | 6.1 | 0.00 | 0.00 | 0.00 | 1019.8 | |
| 20260506144340 | 0 | 273 | 3.5 | 7.0 | 0.00 | 0.00 | 0.00 | 1019.8 | |
| 20260506143500 | 0 | 264 | 2.6 | 7.0 | 0.00 | 0.00 | 0.00 | 1019.8 |